Terminal Aerodrome Forecast
Issued by NWS Cleveland, OH

Home | Current Version | Previous Version | Graphics & Text | Print | Product List | Glossary Off
Versions: 1 2 3 4 5 6 7 8 9 10 11 12 13 14 15 16 17 18 19 20 21 22 23 24 25 26 27 28

825
FTUS41 KCLE 282213 AAD
TAFCLE
TAF AMD
KCLE 282213Z 2822/2924 28015G25KT P6SM VCTS BKN045CB BKN060
      TEMPO 2822/2823 3SM -TSRA BR BKN045CB OVC060
     FM282330 25010KT P6SM VCTS SCT045CB BKN250
     FM290000 20005KT P6SM BKN250
     FM290900 VRB02KT 4SM BR OVC250
     FM291300 20008KT P6SM BKN250
     FM291800 20008KT P6SM VCTS SCT035CB BKN250=

USA.gov is the U.S. government's official web portal to all federal, state and local government web resources and services.